This demonstration page uses our WeatherBlox Daily Observations layout. Learn more.

Left ArrowRight Arrow

Hourly Observations for March 28, 2023

Temp ( °F °C ) Dew Point ( °F °C ) Humidity (%) Winds ( mph kmh ) Pressure ( in mb ) Visibility ( mi km ) Precip ( " mm )
12:53 am 00:53 Clear 48 8.9 38 3.3 68 68 E 8 13 30.12 1020 10 16 0.00 0.00
1:53 am 01:53 Clear 50 10 38 3.3 63 63 ESE 9 15 30.11 1020 10 16 0.00 0.00
2:53 am 02:53 Clear 49 9.4 38 3.3 66 66 ESE 8 13 30.08 1019 10 16 0.00 0.00
3:53 am 03:53 Clear 45 7.2 37 2.8 74 74 ESE 7 11 30.07 1018 10 16 0.00 0.00
4:53 am 04:53 Cloudy 48 8.9 39 3.9 71 71 ESE 7 11 30.06 1018 10 16 0.00 0.00
5:53 am 05:53 Cloudy 50 10 38 3.3 63 63 ESE 10 17 30.04 1017 10 16 0.00 0.00
6:53 am 06:53 Cloudy 50 10 39 3.9 66 66 ESE 9 15 30.03 1017 10 16 0.00 0.00
7:53 am 07:53 Cloudy 51 10.6 40 4.4 65 65 ESE 12 19 30.01 1016 10 16 0.00 0.00
8:53 am 08:53 Mostly Sunny 55 12.8 41 5 59 59 SE 15 24 30.00 1016 10 16 0.00 0.00
9:53 am 09:53 Mostly Cloudy 57 13.9 41 5 55 55 SE 12 19 30.00 1016 10 16 0.00 0.00
10:53 am 10:53 Cloudy 59 15 39 3.9 47 47 SE 16 26 29.99 1016 10 16 0.00 0.00
11:53 am 11:53 Cloudy 60 15.6 40 4.4 47 47 SE 17 28 29.97 1015 10 16 0.01 0.13
12:53 pm 12:53 Cloudy 62 16.7 38 3.3 41 41 SE 14 22 29.95 1014 10 16 0.01 0.13
1:53 pm 13:53 Cloudy with Light Rain 59 15 38 3.3 45 45 SE 15 24 29.92 1013 10 16 0.01 0.13
2:53 pm 14:53 Cloudy with Light Rain 57 13.9 43 6.1 59 59 ENE 6 9 29.95 1014 10 16 0.01 0.13
3:53 pm 15:53 Cloudy 56 13.3 42 5.6 60 60 E 17 28 29.91 1013 10 16 0.01 0.13
4:53 pm 16:53 Cloudy with Light Rain 54 12.2 42 5.6 64 64 E 17 28 29.90 1013 10 16 0.02 0.51
5:53 pm 17:53 Cloudy with Light Rain 51 10.6 45 7.2 79 79 ESE 14 22 29.91 1013 5 8 0.06 1.52
6:53 pm 18:53 Cloudy with Light Rain 51 10.6 46 7.8 83 83 ESE 13 20 29.90 1013 5 8 0.09 2.29
7:53 pm 19:53 Cloudy with Light Rain 50 10 45 7.2 83 83 SE 15 24 29.88 1012 10 16 0.05 1.27
8:53 pm 20:53 Cloudy with Light Rain 51 10.6 47 8.3 86 86 ESE 20 31 29.87 1011 10 16 0.01 0.13
9:30 pm 21:30 Cloudy with Light Rain 51 10.6 47 8.3 86 86 ESE 14 22 29.87 1012 9 14 0.01 0.25
9:53 pm 21:53 Cloudy with Light Rain 51 10.6 47 8.3 86 86 ESE 16 26 29.88 1012 8 13 0.02 0.51
10:12 pm 22:12 Cloudy with Heavy Rain 50 10 47 8.3 89 89 W 7 11 29.90 1013 2 3 0.07 1.78
10:19 pm 22:19 Cloudy with Heavy Rain 49 9.4 48 8.9 97 97 VRB 5 7 29.90 1013 2 3 0.12 3.05
10:29 pm 22:29 Cloudy with Rain 50 10 48 8.9 93 93 SW 5 7 29.90 1013 3 4 0.14 3.56
10:36 pm 22:36 Cloudy with Rain 50 10 48 8.9 93 93 WSW 5 7 29.90 1013 3 5 0.16 4.06
10:53 pm 22:53 Cloudy with Light Rain 50 10 48 8.9 93 93 Calm 29.89 1012 3 5 0.19 4.83
11:14 pm 23:14 Cloudy with Light Rain 49 9.4 48 8.9 97 97 W 3 6 29.90 1013 6 10 0.01 0.25
11:28 pm 23:28 Cloudy with Rain 49 9.4 47 8.3 93 93 WNW 6 9 29.90 1013 3 4 0.04 1.02
11:38 pm 23:38 Cloudy with Light Rain 49 9.4 47 8.3 93 93 WNW 9 15 29.90 1013 3 5 0.06 1.52
11:53 pm 23:53 Cloudy with Light Rain 48 8.9 46 7.8 93 93 WNW 10 17 29.90 1012 4 6 0.06 1.52

Powered by AerisWeather